Tiempo cada hora Czyste

Hoy, 4 Agosto, Miércoles

Tiempo Temperatura Precipitaciones Viento Presión Humedad
00:00 +17°C° 0 mm 2 mps 754 mmHg 64%
01:00 +17°C° 0 mm 2 mps 754 mmHg 65%
02:00 +16°C° 0.2 mm 2 mps 754 mmHg 70%
03:00 +16°C° 0.2 mm 2 mps 754 mmHg 75%
04:00 +15°C° 0.2 mm 1 mps 753 mmHg 80%
05:00 +16°C° 0.1 mm 1 mps 754 mmHg 80%
06:00 +16°C° 0.1 mm 1 mps 754 mmHg 80%
07:00 +18°C° 0.1 mm 1 mps 754 mmHg 80%
08:00 +18°C° 0.2 mm 2 mps 754 mmHg 74%
09:00 +19°C° 0.2 mm 2 mps 754 mmHg 69%
10:00 +20°C° 0.2 mm 2 mps 754 mmHg 63%
11:00 +21°C° 0.3 mm 2 mps 754 mmHg 59%
12:00 +23°C° 0.3 mm 2 mps 754 mmHg 56%
13:00 +24°C° 0.3 mm 2 mps 754 mmHg 52%
14:00 +24°C° 0 mm 3 mps 753 mmHg 51%
15:00 +24°C° 0 mm 3 mps 753 mmHg 50%
16:00 +24°C° 0 mm 3 mps 753 mmHg 48%
17:00 +22°C° 0 mm 3 mps 753 mmHg 53%
18:00 +21°C° 0 mm 3 mps 753 mmHg 57%
19:00 +20°C° 0 mm 2 mps 753 mmHg 61%
20:00 +19°C° 0 mm 2 mps 753 mmHg 64%
21:00 +18°C° 0 mm 2 mps 754 mmHg 66%
22:00 +16°C° 0 mm 2 mps 754 mmHg 69%
23:00 +16°C° 0 mm 2 mps 754 mmHg 72%

Mañana, 5 Agosto, Jueves

Tiempo Temperatura Precipitaciones Viento Presión Humedad
00:00 +15°C° 0 mm 2 mps 754 mmHg 75%
01:00 +14°C° 0 mm 2 mps 754 mmHg 78%
02:00 +14°C° 0 mm 2 mps 753 mmHg 81%
03:00 +14°C° 0 mm 2 mps 753 mmHg 83%
04:00 +13°C° 0 mm 2 mps 753 mmHg 86%
05:00 +14°C° 0 mm 3 mps 753 mmHg 82%
06:00 +16°C° 0 mm 3 mps 753 mmHg 78%
07:00 +17°C° 0 mm 4 mps 753 mmHg 73%
08:00 +19°C° 0 mm 4 mps 753 mmHg 66%
09:00 +21°C° 0 mm 4 mps 753 mmHg 59%
10:00 +22°C° 0 mm 4 mps 752 mmHg 52%
11:00 +23°C° 0 mm 4 mps 752 mmHg 50%
12:00 +25°C° 0 mm 4 mps 752 mmHg 47%
13:00 +26°C° 0 mm 3 mps 751 mmHg 44%
14:00 +25°C° 0 mm 3 mps 751 mmHg 48%
15:00 +24°C° 0 mm 3 mps 751 mmHg 53%
16:00 +22°C° 0 mm 3 mps 750 mmHg 58%
17:00 +22°C° 0.2 mm 3 mps 750 mmHg 61%
18:00 +21°C° 0.2 mm 3 mps 750 mmHg 64%
19:00 +20°C° 0.2 mm 3 mps 750 mmHg 67%
20:00 +20°C° 0.2 mm 3 mps 750 mmHg 70%
21:00 +19°C° 0.2 mm 2 mps 750 mmHg 73%
22:00 +19°C° 0.2 mm 1 mps 750 mmHg 76%
23:00 +19°C° 0 mm 1 mps 750 mmHg 76%

Pasado mañana, 6 Agosto, Viernes

Tiempo Temperatura Precipitaciones Viento Presión Humedad
00:00 +18°C° 0 mm 1 mps 750 mmHg 77%
01:00 +18°C° 0 mm 1 mps 750 mmHg 78%
02:00 +18°C° 0 mm 1 mps 750 mmHg 77%
03:00 +18°C° 0 mm 1 mps 750 mmHg 77%
04:00 +18°C° 0 mm 1 mps 749 mmHg 77%
05:00 +17°C° 0 mm 2 mps 749 mmHg 76%
06:00 +18°C° 0 mm 2 mps 749 mmHg 75%
07:00 +18°C° 0 mm 2 mps 749 mmHg 75%
08:00 +20°C° 0.1 mm 2 mps 749 mmHg 70%
09:00 +21°C° 0.1 mm 2 mps 749 mmHg 66%
10:00 +23°C° 0.1 mm 2 mps 749 mmHg 62%
11:00 +24°C° 0.3 mm 2 mps 749 mmHg 57%
12:00 +24°C° 0.3 mm 3 mps 749 mmHg 53%
13:00 +25°C° 0.3 mm 3 mps 749 mmHg 49%
14:00 +25°C° 0.1 mm 3 mps 749 mmHg 49%
15:00 +25°C° 0.1 mm 3 mps 749 mmHg 50%
16:00 +25°C° 0.1 mm 4 mps 749 mmHg 50%
17:00 +23°C° 0.1 mm 4 mps 749 mmHg 54%
18:00 +22°C° 0.1 mm 3 mps 749 mmHg 57%
19:00 +21°C° 0.1 mm 3 mps 749 mmHg 61%
20:00 +20°C° 0 mm 3 mps 749 mmHg 64%
21:00 +18°C° 0 mm 3 mps 749 mmHg 68%
22:00 +17°C° 0 mm 3 mps 750 mmHg 71%
23:00 +17°C° 0 mm 3 mps 750 mmHg 74%

7 Agosto, Sábado

Tiempo Temperatura Precipitaciones Viento Presión Humedad
00:00 +16°C° 0 mm 3 mps 749 mmHg 77%
01:00 +16°C° 0 mm 3 mps 749 mmHg 80%
02:00 +15°C° 0 mm 2 mps 749 mmHg 83%
03:00 +15°C° 0 mm 2 mps 749 mmHg 87%
04:00 +15°C° 0 mm 2 mps 749 mmHg 91%
05:00 +16°C° 0 mm 2 mps 749 mmHg 87%
06:00 +17°C° 0 mm 2 mps 750 mmHg 84%
07:00 +18°C° 0 mm 2 mps 750 mmHg 81%
08:00 +20°C° 0 mm 2 mps 749 mmHg 74%
09:00 +21°C° 0 mm 3 mps 749 mmHg 68%
10:00 +24°C° 0 mm 3 mps 749 mmHg 62%
11:00 +25°C° 0.1 mm 4 mps 749 mmHg 57%
12:00 +25°C° 0.1 mm 4 mps 749 mmHg 52%
13:00 +26°C° 0.1 mm 5 mps 749 mmHg 47%
14:00 +26°C° 0 mm 5 mps 749 mmHg 47%
15:00 +26°C° 0 mm 5 mps 749 mmHg 47%
16:00 +26°C° 0 mm 5 mps 749 mmHg 47%
17:00 +25°C° 0 mm 4 mps 749 mmHg 52%
18:00 +24°C° 0 mm 3 mps 749 mmHg 57%
19:00 +21°C° 0 mm 2 mps 749 mmHg 62%
20:00 +20°C° 0.4 mm 2 mps 749 mmHg 70%
21:00 +19°C° 0.4 mm 2 mps 750 mmHg 77%
22:00 +19°C° 0.4 mm 1 mps 750 mmHg 85%
23:00 +18°C° 0.2 mm 2 mps 750 mmHg 87%

8 Agosto, Domingo

Tiempo Temperatura Precipitaciones Viento Presión Humedad
00:00 +18°C° 0.2 mm 3 mps 750 mmHg 89%
01:00 +18°C° 0.2 mm 4 mps 750 mmHg 91%
02:00 +18°C° 0.2 mm 4 mps 750 mmHg 92%
03:00 +17°C° 0.2 mm 4 mps 750 mmHg 93%
04:00 +16°C° 0.2 mm 5 mps 750 mmHg 94%
05:00 +17°C° 0.1 mm 5 mps 750 mmHg 90%
06:00 +17°C° 0.1 mm 5 mps 751 mmHg 87%
07:00 +17°C° 0.1 mm 5 mps 751 mmHg 84%
08:00 +19°C° 0 mm 5 mps 752 mmHg 74%
09:00 +21°C° 0 mm 6 mps 752 mmHg 64%
10:00 +22°C° 0 mm 6 mps 752 mmHg 54%
11:00 +23°C° 0 mm 6 mps 753 mmHg 49%
12:00 +24°C° 0 mm 6 mps 753 mmHg 44%
13:00 +26°C° 0 mm 5 mps 753 mmHg 39%
14:00 +26°C° 0 mm 5 mps 753 mmHg 41%
15:00 +25°C° 0 mm 4 mps 753 mmHg 43%
16:00 +25°C° 0 mm 4 mps 754 mmHg 45%
17:00 +24°C° 0 mm 3 mps 754 mmHg 50%
18:00 +22°C° 0 mm 3 mps 754 mmHg 55%
19:00 +21°C° 0 mm 3 mps 755 mmHg 60%
20:00 +19°C° 0.3 mm 3 mps 755 mmHg 67%
21:00 +18°C° 0.3 mm 2 mps 756 mmHg 75%
22:00 +16°C° 0.3 mm 2 mps 756 mmHg 83%
23:00 +16°C° 0 mm 2 mps 756 mmHg 85%

9 Agosto, Lunes

Tiempo Temperatura Precipitaciones Viento Presión Humedad
00:00 +15°C° 0 mm 2 mps 756 mmHg 87%
01:00 +15°C° 0 mm 2 mps 757 mmHg 89%
02:00 +15°C° 0 mm 2 mps 757 mmHg 89%
03:00 +14°C° 0 mm 2 mps 757 mmHg 90%
04:00 +14°C° 0 mm 2 mps 757 mmHg 90%
05:00 +15°C° 0 mm 2 mps 757 mmHg 87%
06:00 +16°C° 0 mm 2 mps 757 mmHg 83%
07:00 +17°C° 0 mm 2 mps 758 mmHg 79%
08:00 +19°C° 0 mm 3 mps 758 mmHg 71%
09:00 +21°C° 0 mm 3 mps 758 mmHg 62%
10:00 +22°C° 0 mm 4 mps 758 mmHg 54%
11:00 +23°C° 0 mm 4 mps 758 mmHg 49%
12:00 +25°C° 0 mm 4 mps 757 mmHg 44%
13:00 +26°C° 0 mm 4 mps 757 mmHg 39%
14:00 +25°C° 0 mm 4 mps 757 mmHg 44%
15:00 +24°C° 0 mm 3 mps 757 mmHg 48%
16:00 +22°C° 0 mm 3 mps 757 mmHg 52%
17:00 +22°C° 0 mm 3 mps 757 mmHg 55%
18:00 +21°C° 0 mm 3 mps 757 mmHg 58%
19:00 +20°C° 0 mm 2 mps 757 mmHg 61%
20:00 +18°C° 0.9 mm 2 mps 757 mmHg 70%
21:00 +17°C° 0.9 mm 2 mps 757 mmHg 80%
22:00 +16°C° 0.9 mm 2 mps 757 mmHg 90%
23:00 +14°C° 0.1 mm 3 mps 757 mmHg 91%
Mostrar más

Necesitamos Su Consentimiento

Meteoprog y nuestros Proveedores de Servicios pueden almacenar y acceder a sus datos personales como cookies, identificadores de dispositivo u otras tecnologías similares de su dispositivo y procesar dichos datos para personalizar contenido y anuncios, además de ofrecer funciones de redes sociales y analizar el tráfico.

  • Almacenar y/o acceder a información en su dispositivo

    Se puede almacenar o acceder a cookies, identificadores de dispositivo u otra información de su dispositivo para los fines anteriormente indicados.

  • Anuncios y contenido personalizados, medición de anuncios y contenido, percepciones del público, y desarrollo de productos

    Los anuncios y el contenido pueden personalizarse en base a su perfil. Se pueden añadir más datos para personalizar mejor los anuncios y contenidos. Se puede medir el rendimiento de los anuncios y contenidos. Se puede obtener la percepción sobre el público que ha visto los anuncios y contenidos. Dichos datos pueden usarse para desarrollar o mejorar la experiencia del usuario, sistemas y software.

Al hacer clic en ‘Estoy De Acuerdo’ usted permitirá el uso de las cookies, identificadores de dispositivo, balizas web u otras tecnologías similares indicadas. Su configuración puede cambiarse desde el navegador de su dispositivo.

Para ciertos fines, los intereses legítimos pueden ser considerados por encima del consentimiento. Puede leer más sobre ello en nuestra Política de Privacidad y Cookies.